• In Uzbekistan
  • List of Countries
  • For 7 days
  • Water Temperature
  • Satellite Maps
  • Weather Map
  • Weather Widgets
  • user-avatar
    Login

    Hourly Weather Brecon

    Today, 17 October, Tuesday

    Time Temperature Precipitation Wind Pressure Humidity
    00:00 +10°C° 0 mm 9 mps 746 mmHg 71%
    01:00 +10°C° 0 mm 9 mps 746 mmHg 72%
    02:00 +10°C° 0 mm 8 mps 746 mmHg 72%
    03:00 +10°C° 0 mm 8 mps 746 mmHg 73%
    04:00 +9°C° 0 mm 7 mps 747 mmHg 75%
    05:00 +9°C° 0 mm 7 mps 747 mmHg 78%
    06:00 +8°C° 0 mm 6 mps 747 mmHg 82%
    07:00 +9°C° 0 mm 6 mps 747 mmHg 79%
    08:00 +10°C° 0 mm 6 mps 748 mmHg 77%
    09:00 +12°C° 0 mm 5 mps 748 mmHg 74%
    10:00 +12°C° 0 mm 5 mps 748 mmHg 72%
    11:00 +13°C° 0 mm 5 mps 748 mmHg 69%
    12:00 +13°C° 0 mm 4 mps 748 mmHg 66%
    13:00 +13°C° 0.1 mm 3 mps 748 mmHg 69%
    14:00 +13°C° 0.1 mm 3 mps 747 mmHg 71%
    15:00 +14°C° 0.1 mm 2 mps 747 mmHg 73%
    16:00 +13°C° 0.1 mm 2 mps 747 mmHg 77%
    17:00 +12°C° 0.1 mm 1 mps 747 mmHg 82%
    18:00 +11°C° 0.1 mm 1 mps 746 mmHg 86%
    19:00 +11°C° 0.1 mm 1 mps 746 mmHg 87%
    20:00 +11°C° 0.1 mm 1 mps 746 mmHg 89%
    21:00 +10°C° 0.1 mm 1 mps 746 mmHg 90%
    22:00 +9°C° 0.1 mm 2 mps 745 mmHg 91%
    23:00 +9°C° 0.1 mm 2 mps 745 mmHg 91%

    Tomorrow, 18 October, Wednesday

    Time Temperature Precipitation Wind Pressure Humidity
    00:00 +9°C° 0.1 mm 2 mps 745 mmHg 92%
    01:00 +9°C° 0.1 mm 3 mps 744 mmHg 93%
    02:00 +9°C° 0.1 mm 3 mps 743 mmHg 93%
    03:00 +8°C° 0.1 mm 4 mps 743 mmHg 94%
    04:00 +8°C° 0 mm 4 mps 742 mmHg 94%
    05:00 +8°C° 0 mm 4 mps 742 mmHg 93%
    06:00 +10°C° 0 mm 4 mps 742 mmHg 93%
    07:00 +10°C° 0 mm 4 mps 742 mmHg 93%
    08:00 +10°C° 0 mm 4 mps 742 mmHg 92%
    09:00 +10°C° 0 mm 5 mps 741 mmHg 92%
    10:00 +11°C° 0.2 mm 4 mps 741 mmHg 92%
    11:00 +12°C° 0.2 mm 4 mps 741 mmHg 91%
    12:00 +12°C° 0.2 mm 3 mps 741 mmHg 91%
    13:00 +13°C° 0 mm 3 mps 741 mmHg 90%
    14:00 +14°C° 0 mm 2 mps 741 mmHg 90%
    15:00 +14°C° 0 mm 2 mps 741 mmHg 90%
    16:00 +14°C° 0 mm 2 mps 740 mmHg 92%
    17:00 +13°C° 0 mm 2 mps 740 mmHg 93%
    18:00 +13°C° 0 mm 2 mps 740 mmHg 95%
    19:00 +12°C° 0 mm 2 mps 740 mmHg 96%
    20:00 +12°C° 0 mm 2 mps 740 mmHg 96%
    21:00 +12°C° 0 mm 2 mps 740 mmHg 96%
    22:00 +12°C° 0 mm 2 mps 740 mmHg 96%
    23:00 +12°C° 0 mm 2 mps 740 mmHg 96%

    Day after tomorrow, 19 October, Thursday

    Time Temperature Precipitation Wind Pressure Humidity
    00:00 +12°C° 0 mm 2 mps 739 mmHg 97%
    01:00 +12°C° 0 mm 2 mps 739 mmHg 96%
    02:00 +10°C° 0 mm 2 mps 739 mmHg 96%
    03:00 +10°C° 0 mm 2 mps 739 mmHg 96%
    04:00 +10°C° 0 mm 2 mps 738 mmHg 96%
    05:00 +10°C° 0 mm 2 mps 738 mmHg 96%
    06:00 +10°C° 0 mm 2 mps 737 mmHg 96%
    07:00 +10°C° 0.1 mm 2 mps 737 mmHg 96%
    08:00 +11°C° 0.1 mm 3 mps 737 mmHg 95%
    09:00 +12°C° 0.1 mm 3 mps 736 mmHg 94%
    10:00 +13°C° 0.3 mm 3 mps 736 mmHg 93%
    11:00 +13°C° 0.3 mm 4 mps 736 mmHg 92%
    12:00 +14°C° 0.3 mm 4 mps 736 mmHg 91%
    13:00 +14°C° 0.1 mm 5 mps 735 mmHg 89%
    14:00 +14°C° 0.1 mm 5 mps 734 mmHg 88%
    15:00 +14°C° 0.1 mm 5 mps 734 mmHg 87%
    16:00 +14°C° 0.4 mm 6 mps 734 mmHg 88%
    17:00 +13°C° 0.4 mm 6 mps 733 mmHg 90%
    18:00 +12°C° 0.4 mm 7 mps 733 mmHg 92%
    19:00 +12°C° 1.6 mm 7 mps 732 mmHg 92%
    20:00 +12°C° 1.6 mm 7 mps 732 mmHg 93%
    21:00 +12°C° 1.6 mm 8 mps 732 mmHg 93%
    22:00 +12°C° 0.5 mm 7 mps 731 mmHg 94%
    23:00 +13°C° 0.5 mm 5 mps 731 mmHg 94%

    20 October, Friday

    Time Temperature Precipitation Wind Pressure Humidity
    00:00 +13°C° 0.5 mm 4 mps 731 mmHg 94%
    01:00 +12°C° 0.1 mm 4 mps 731 mmHg 95%
    02:00 +12°C° 0.1 mm 4 mps 731 mmHg 95%
    03:00 +10°C° 0.1 mm 5 mps 732 mmHg 96%
    04:00 +10°C° 0 mm 5 mps 733 mmHg 94%
    05:00 +10°C° 0 mm 6 mps 733 mmHg 92%
    06:00 +10°C° 0 mm 7 mps 734 mmHg 90%
    07:00 +10°C° 0 mm 6 mps 735 mmHg 89%
    08:00 +10°C° 0 mm 6 mps 736 mmHg 88%
    09:00 +10°C° 0 mm 6 mps 737 mmHg 86%
    10:00 +10°C° 0 mm 6 mps 737 mmHg 83%
    11:00 +11°C° 0 mm 6 mps 738 mmHg 79%
    12:00 +12°C° 0 mm 5 mps 738 mmHg 76%
    13:00 +12°C° 0 mm 5 mps 738 mmHg 76%
    14:00 +12°C° 0 mm 5 mps 738 mmHg 77%
    15:00 +12°C° 0 mm 5 mps 738 mmHg 77%
    16:00 +10°C° 0.4 mm 5 mps 737 mmHg 80%
    17:00 +10°C° 0.4 mm 6 mps 736 mmHg 83%
    18:00 +9°C° 0.4 mm 6 mps 736 mmHg 86%
    19:00 +10°C° 1.8 mm 7 mps 735 mmHg 88%
    20:00 +10°C° 1.8 mm 8 mps 734 mmHg 90%
    21:00 +11°C° 1.8 mm 9 mps 733 mmHg 92%
    22:00 +11°C° 0.7 mm 9 mps 733 mmHg 91%
    23:00 +11°C° 0.7 mm 9 mps 732 mmHg 89%

    21 October, Saturday

    Time Temperature Precipitation Wind Pressure Humidity
    00:00 +12°C° 0.7 mm 9 mps 732 mmHg 88%
    01:00 +11°C° 0.1 mm 9 mps 731 mmHg 86%
    02:00 +10°C° 0.1 mm 9 mps 731 mmHg 85%
    03:00 +9°C° 0.1 mm 10 mps 730 mmHg 83%
    04:00 +9°C° 0.1 mm 11 mps 729 mmHg 81%
    05:00 +9°C° 0.1 mm 12 mps 728 mmHg 80%
    06:00 +9°C° 0.1 mm 13 mps 727 mmHg 78%
    07:00 +9°C° 0.4 mm 14 mps 726 mmHg 77%
    08:00 +10°C° 0.4 mm 14 mps 725 mmHg 77%
    09:00 +10°C° 0.4 mm 15 mps 724 mmHg 76%
    10:00 +10°C° 0.5 mm 15 mps 724 mmHg 78%
    11:00 +10°C° 0.5 mm 15 mps 725 mmHg 79%
    12:00 +10°C° 0.5 mm 14 mps 725 mmHg 81%
    13:00 +10°C° 0.3 mm 14 mps 726 mmHg 81%
    14:00 +10°C° 0.3 mm 13 mps 727 mmHg 80%
    15:00 +10°C° 0.3 mm 13 mps 729 mmHg 80%
    16:00 +9°C° 0.2 mm 13 mps 730 mmHg 79%
    17:00 +8°C° 0.2 mm 13 mps 731 mmHg 78%
    18:00 +8°C° 0.2 mm 12 mps 733 mmHg 77%
    19:00 +8°C° 0.1 mm 12 mps 734 mmHg 77%
    20:00 +7°C° 0.1 mm 12 mps 735 mmHg 78%
    21:00 +7°C° 0.1 mm 11 mps 736 mmHg 78%
    22:00 +7°C° 0.1 mm 11 mps 737 mmHg 78%
    23:00 +7°C° 0.1 mm 11 mps 738 mmHg 78%

    22 October, Sunday

    Time Temperature Precipitation Wind Pressure Humidity
    00:00 +7°C° 0.1 mm 10 mps 739 mmHg 78%
    01:00 +6°C° 0 mm 10 mps 740 mmHg 77%
    02:00 +6°C° 0 mm 9 mps 741 mmHg 76%
    03:00 +6°C° 0 mm 9 mps 741 mmHg 75%
    04:00 +5°C° 0 mm 8 mps 742 mmHg 76%
    05:00 +5°C° 0 mm 7 mps 743 mmHg 76%
    06:00 +5°C° 0 mm 7 mps 743 mmHg 77%
    07:00 +5°C° 0.1 mm 7 mps 744 mmHg 76%
    08:00 +6°C° 0.1 mm 7 mps 745 mmHg 75%
    09:00 +8°C° 0.1 mm 7 mps 745 mmHg 74%
    10:00 +8°C° 0 mm 7 mps 746 mmHg 71%
    11:00 +9°C° 0 mm 8 mps 746 mmHg 67%
    12:00 +10°C° 0 mm 8 mps 746 mmHg 64%
    13:00 +10°C° 0 mm 8 mps 746 mmHg 67%
    14:00 +10°C° 0 mm 8 mps 746 mmHg 69%
    15:00 +10°C° 0 mm 7 mps 746 mmHg 72%
    16:00 +10°C° 0 mm 7 mps 746 mmHg 75%
    17:00 +10°C° 0 mm 7 mps 746 mmHg 78%
    18:00 +9°C° 0 mm 7 mps 746 mmHg 81%
    19:00 +10°C° 0.1 mm 7 mps 746 mmHg 83%
    20:00 +10°C° 0.1 mm 8 mps 746 mmHg 85%
    21:00 +11°C° 0.1 mm 9 mps 746 mmHg 86%
    22:00 +11°C° 1 mm 10 mps 745 mmHg 88%
    23:00 +12°C° 1 mm 10 mps 745 mmHg 89%
    Show more